Retour au catalogue

THORAD DELTA 1 DEB

LostSSO
NORAD 42600·DEBRIS·🇺🇸 United States

Lancé Nov 15, 1974 depuis Vandenberg Space Force Base

Loading…

Prochains Passages (prochaines 24 heures)

TLE

PériméSource: Space-Track

Époque: Aug 22, 2016, 07:05 UTC

1 42600U 74089FR  16235.29564104  .00000089  00000-0  85552-3 0  9993
2 42600 101.5654 263.1755 0052625 320.3049  37.9026 12.51445564455756

Suivez THORAD DELTA 1 DEB en temps réel avec AllMySat

Download on the App Store